Simultaneous Nadir Overpasses (SNOs) Predictions

Prediction of SNOs between METOP-B and TERRA Satellite Orbit:

Table of predicted SNOs for the next 14.0 days since TLE Epoch: 1/21/2023
Index Date (METOP-B) Time (METOP-B) Lat,Lon (METOP-B) SZA (METOP-B ) Date (TERRA) Time (TERRA) Lat,Lon (TERRA) SZA (TERRA ) Distance(km) Time Diff (sec)
1 01/22/2023 19:43:55 80.95, -80.45 101.87 01/22/2023 19:44:47 80.95, -80.51 101.88 1.14 52
2 01/22/2023 20:34:34 -80.98, 87.56 78.06 01/22/2023 20:34:08 -80.99, 87.66 78.06 1.91 26
3 01/25/2023 11:55:32 80.96, 36.79 101.24 01/25/2023 11:56:17 80.96, 36.78 101.25 0.47 45
4 01/25/2023 12:46:12 -80.97,-155.54 78.73 01/25/2023 12:45:39 -80.98,-155.37 78.73 2.93 33
5 01/28/2023 04:07:08 80.96, 153.93 100.55 01/28/2023 04:07:46 80.95, 153.75 100.54 3.21 38
6 01/28/2023 04:57:47 -80.99, -38.00 79.37 01/28/2023 04:57:07 -81.00, -38.01 79.38 0.36 40
7 01/30/2023 20:18:46 80.94, -89.40 99.78 01/30/2023 20:19:15 80.95, -89.23 99.80 3.03 29
8 01/30/2023 21:09:24 -80.99, 79.06 80.10 01/30/2023 21:08:36 -80.99, 79.05 80.12 0.25 48
9 02/02/2023 12:30:21 80.97, 28.26 99.08 02/02/2023 12:30:42 80.97, 28.18 99.08 1.42 21



Historial Predications of SNOs between METOP-B and TERRA
